Location: Lhota
(50.0887°N, 14.0116°E)
Time: 00:22:59
(UTC+00:00)

ISS - Pass Details

Date: 19 May 2025
Orbit: 415 x 417 km, 51.6° (Epoch: 22 June)

Event Time Altitude Azimuth Distance (km) Brightness Sun altitude
Rises 21:46:54 0° 286° (WNW) 2,361 0.6 -18.1°
Reaches altitude 10° 21:49:10 10° 275° (W) 1,494 -0.7 -18.2°
Enters shadow 21:51:22 26° 238° (WSW) 862 -2.3 -18.3°
